| time (UTC) | temp F | wind direction | speed MPH | gust MPH | rain 1hr in | rain 24hr in | rain mn in | humidity % | barometer mb |
| 20260510105540 | 51 | 92 | 13.0 | 22.0 | 0.00 | 0.00 | 0.00 | 83 | 1006.4 |
| 20260510105039 | 51 | 89 | 12.0 | 22.0 | 0.00 | 0.00 | 0.00 | 83 | 1006.3 |
| 20260510104551 | 51 | 89 | 14.0 | 22.0 | 0.00 | 0.00 | 0.00 | 84 | 1006.2 |
| 20260510104038 | 52 | 90 | 13.0 | 21.0 | 0.00 | 0.00 | 0.00 | 83 | 1006.1 |
| 20260510103613 | 52 | 147 | 10.0 | 21.0 | 0.00 | 0.00 | 0.00 | 83 | 1006.1 |
| 20260510103054 | 52 | 128 | 14.0 | 21.0 | 0.00 | 0.00 | 0.00 | 83 | 1006.1 |
| 20260510102539 | 52 | 62 | 10.0 | 18.0 | 0.00 | 0.00 | 0.00 | 85 | 1005.7 |
| 20260510102042 | 53 | 101 | 12.0 | 18.0 | 0.00 | 0.00 | 0.00 | 85 | 1005.5 |
| 20260510101547 | 53 | 99 | 10.0 | 17.0 | 0.00 | 0.00 | 0.00 | 84 | 1005.5 |
| 20260510101039 | 53 | 82 | 10.0 | 14.0 | 0.00 | 0.00 | 0.00 | 83 | 1005.4 |
| 20260510100539 | 53 | 90 | 9.0 | 13.0 | 0.00 | 0.00 | 0.00 | 83 | 1005.3 |
| 20260510100051 | 53 | 102 | 7.0 | 13.0 | 0.00 | 0.00 | 0.00 | 84 | 1005.3 |
| 20260510095540 | 53 | 105 | 9.0 | 13.0 | 0.00 | 0.00 | 0.00 | 84 | 1005.3 |
| 20260510095038 | 53 | 107 | 7.0 | 11.0 | 0.00 | 0.00 | 0.00 | 84 | 1005.1 |
| 20260510094556 | 53 | 88 | 6.0 | 11.0 | 0.00 | 0.00 | 0.00 | 85 | 1005.0 |
| 20260510094038 | 53 | 94 | 6.0 | 11.0 | 0.00 | 0.00 | 0.00 | 84 | 1004.9 |
| 20260510093539 | 54 | 101 | 5.0 | 12.0 | 0.00 | 0.00 | 0.00 | 84 | 1005.0 |
| 20260510093050 | 54 | 90 | 8.0 | 12.0 | 0.00 | 0.00 | 0.00 | 84 | 1004.9 |
| 20260510092540 | 53 | 100 | 8.0 | 12.0 | 0.00 | 0.00 | 0.00 | 84 | 1004.9 |
| 20260510092042 | 53 | 101 | 4.0 | 10.0 | 0.00 | 0.00 | 0.00 | 84 | 1004.8 |
| 20260510091550 | 53 | 108 | 7.0 | 12.0 | 0.00 | 0.00 | 0.00 | 85 | 1004.7 |
| 20260510091039 | 53 | 93 | 6.0 | 12.0 | 0.00 | 0.00 | 0.00 | 85 | 1004.5 |
| 20260510090539 | 53 | 93 | 7.0 | 12.0 | 0.00 | 0.00 | 0.00 | 85 | 1004.4 |
| 20260510090049 | 53 | 98 | 8.0 | 12.0 | 0.00 | 0.00 | 0.00 | 85 | 1004.4 |
| 20260510085539 | 53 | 104 | 7.0 | 10.0 | 0.00 | 0.00 | 0.00 | 85 | 1004.2 |
| 20260510085043 | 54 | 98 | 4.0 | 9.0 | 0.00 | 0.00 | 0.00 | 86 | 1004.2 |
| 20260510084548 | 54 | 98 | 6.0 | 9.0 | 0.00 | 0.00 | 0.00 | 86 | 1004.0 |
| 20260510084039 | 54 | 96 | 3.0 | 9.0 | 0.00 | 0.00 | 0.00 | 86 | 1003.9 |
| 20260510083539 | 54 | 98 | 5.0 | 9.0 | 0.00 | 0.00 | 0.00 | 87 | 1003.8 |
| 20260510083058 | 54 | 95 | 5.0 | 9.0 | 0.00 | 0.00 | 0.00 | 87 | 1003.7 |
| 20260510082538 | 54 | 103 | 5.0 | 8.0 | 0.00 | 0.00 | 0.00 | 88 | 1003.6 |
| 20260510082038 | 54 | 91 | 3.0 | 8.0 | 0.00 | 0.00 | 0.00 | 88 | 1003.5 |
| 20260510081547 | 54 | 103 | 3.0 | 8.0 | 0.00 | 0.00 | 0.00 | 89 | 1003.4 |
| 20260510081039 | 54 | 96 | 3.0 | 8.0 | 0.00 | 0.00 | 0.00 | 89 | 1003.4 |
| 20260510080543 | 55 | 106 | 3.0 | 11.0 | 0.00 | 0.00 | 0.00 | 88 | 1003.2 |
| 20260510080045 | 55 | 103 | 4.0 | 12.0 | 0.00 | 0.00 | 0.00 | 89 | 1003.1 |
| 20260510075539 | 55 | 106 | 8.0 | 12.0 | 0.00 | 0.00 | 0.00 | 90 | 1003.0 |
| 20260510075039 | 55 | 103 | 6.0 | 8.0 | 0.00 | 0.00 | 0.00 | 93 | 1003.0 |
| 20260510074549 | 55 | 92 | 4.0 | 7.0 | 0.00 | 0.00 | 0.00 | 94 | 1002.8 |
| 20260510074039 | 55 | 112 | 3.0 | 6.0 | 0.00 | 0.00 | 0.00 | 94 | 1002.7 |
| 20260510073539 | 55 | 91 | 1.0 | 4.0 | 0.00 | 0.00 | 0.00 | 93 | 1002.5 |
| 20260510073054 | 55 | 309 | 0.0 | 3.0 | 0.00 | 0.00 | 0.00 | 92 | 1002.5 |
| 20260510072539 | 55 | 309 | 1.0 | 3.0 | 0.00 | 0.00 | 0.00 | 93 | 1002.4 |
| 20260510072039 | 56 | 309 | 1.0 | 17.0 | 0.00 | 0.00 | 0.00 | 93 | 1002.3 |
| 20260510071549 | 55 | 0 | 6.0 | 17.0 | 0.00 | 0.00 | 0.00 | 94 | 1002.0 |
| 20260510071038 | 55 | 248 | 3.0 | 5.0 | 0.00 | 0.00 | 0.00 | 92 | 1001.9 |
| 20260510070538 | 55 | 0 | 0.0 | 1.0 | 0.00 | 0.00 | 0.00 | 92 | 1001.6 |
| 20260510070049 | 55 | 248 | 0.0 | 1.0 | 0.00 | 0.00 | 0.00 | 92 | 1001.4 |
| 20260510065542 | 55 | 248 | 0.0 | 1.0 | 0.00 | 0.00 | 0.00 | 92 | 1001.2 |
| 20260510065039 | 55 | 0 | 0.0 | 2.0 | 0.00 | 0.00 | 0.00 | 92 | 1001.2 |
| 20260510064551 | 56 | 0 | 0.0 | 2.0 | 0.00 | 0.00 | 0.00 | 92 | 1001.2 |
| 20260510064039 | 56 | 0 | 0.0 | 2.0 | 0.00 | 0.00 | 0.00 | 91 | 1001.1 |
| 20260510063539 | 56 | 0 | 0.0 | 2.0 | 0.00 | 0.00 | 0.00 | 91 | 1001.1 |
| 20260510063048 | 56 | 0 | 0.0 | 2.0 | 0.00 | 0.00 | 0.00 | 90 | 1001.1 |
| 20260510062542 | 56 | 96 | 0.0 | 2.0 | 0.00 | 0.00 | 0.00 | 90 | 1001.1 |
| 20260510062039 | 56 | 296 | 0.0 | 1.0 | 0.00 | 0.00 | 0.00 | 90 | 1001.0 |
| 20260510061548 | 57 | 0 | 0.0 | 1.0 | 0.00 | 0.00 | 0.00 | 89 | 1000.9 |
| 20260510061039 | 57 | 296 | 0.0 | 3.0 | 0.00 | 0.00 | 0.00 | 89 | 1000.8 |
| 20260510060540 | 57 | 0 | 0.0 | 7.0 | 0.00 | 0.00 | 0.00 | 89 | 1000.8 |
| 20260510060047 | 58 | 295 | 2.0 | 8.0 | 0.00 | 0.00 | 0.00 | 89 | 1000.9 |
| 20260510055539 | 58 | 288 | 3.0 | 8.0 | 0.00 | 0.00 | 0.00 | 89 | 1000.7 |
| 20260510055041 | 58 | 314 | 5.0 | 8.0 | 0.00 | 0.00 | 0.00 | 89 | 1000.7 |
| 20260510054549 | 58 | 273 | 3.0 | 8.0 | 0.00 | 0.00 | 0.00 | 88 | 1000.7 |
| 20260510054038 | 59 | 263 | 3.0 | 9.0 | 0.00 | 0.00 | 0.00 | 88 | 1000.7 |
| 20260510053539 | 59 | 238 | 4.0 | 9.0 | 0.00 | 0.00 | 0.00 | 88 | 1000.4 |
| 20260510053047 | 59 | 241 | 4.0 | 7.0 | 0.00 | 0.00 | 0.00 | 88 | 1000.5 |
| 20260510052539 | 59 | 279 | 3.0 | 7.0 | 0.00 | 0.00 | 0.00 | 88 | 1000.5 |
| 20260510052040 | 59 | 235 | 3.0 | 9.0 | 0.00 | 0.00 | 0.00 | 87 | 1000.4 |
| 20260510051557 | 59 | 253 | 4.0 | 9.0 | 0.00 | 0.00 | 0.00 | 87 | 1000.3 |
| 20260510051037 | 59 | 250 | 6.0 | 15.0 | 0.00 | 0.00 | 0.00 | 87 | 1000.3 |
| 20260510050539 | 60 | 250 | 8.0 | 15.0 | 0.00 | 0.00 | 0.00 | 87 | 1000.1 |
| 20260510050048 | 60 | 252 | 6.0 | 15.0 | 0.00 | 0.00 | 0.00 | 86 | 1000.0 |
| 20260510045539 | 60 | 232 | 7.0 | 14.0 | 0.00 | 0.00 | 0.00 | 86 | 999.9 |
| 20260510045038 | 60 | 247 | 6.0 | 13.0 | 0.00 | 0.00 | 0.00 | 86 | 999.9 |
| 20260510044547 | 60 | 240 | 7.0 | 12.0 | 0.00 | 0.00 | 0.00 | 86 | 999.7 |
| 20260510044039 | 60 | 286 | 6.0 | 15.0 | 0.00 | 0.00 | 0.00 | 86 | 999.7 |
| 20260510043539 | 60 | 283 | 7.0 | 15.0 | 0.00 | 0.00 | 0.00 | 85 | 999.5 |
| 20260510043050 | 60 | 261 | 6.0 | 15.0 | 0.00 | 0.00 | 0.00 | 85 | 999.3 |
| 20260510042540 | 61 | 298 | 7.0 | 16.0 | 0.00 | 0.00 | 0.00 | 84 | 999.2 |
| 20260510042039 | 61 | 313 | 6.0 | 16.0 | 0.00 | 0.00 | 0.00 | 84 | 999.4 |
| 20260510041547 | 61 | 281 | 7.0 | 15.0 | 0.00 | 0.00 | 0.00 | 84 | 999.3 |
| 20260510041039 | 61 | 252 | 8.0 | 15.0 | 0.00 | 0.00 | 0.00 | 84 | 999.4 |
| 20260510040539 | 61 | 294 | 9.0 | 18.0 | 0.00 | 0.00 | 0.00 | 84 | 999.3 |
| 20260510040051 | 61 | 263 | 11.0 | 18.0 | 0.00 | 0.00 | 0.00 | 83 | 999.2 |
| 20260510035538 | 61 | 349 | 9.0 | 18.0 | 0.00 | 0.00 | 0.00 | 84 | 999.1 |
| 20260510035038 | 61 | 271 | 8.0 | 19.0 | 0.00 | 0.00 | 0.00 | 84 | 999.2 |
| 20260510034547 | 61 | 271 | 10.0 | 19.0 | 0.00 | 0.00 | 0.00 | 84 | 999.0 |
| 20260510034040 | 61 | 254 | 9.0 | 20.0 | 0.00 | 0.00 | 0.00 | 83 | 999.2 |
| 20260510033538 | 61 | 239 | 9.0 | 20.0 | 0.00 | 0.00 | 0.00 | 83 | 999.1 |
| 20260510033047 | 61 | 238 | 9.0 | 19.0 | 0.00 | 0.00 | 0.00 | 84 | 999.0 |
| 20260510032541 | 61 | 248 | 10.0 | 23.0 | 0.00 | 0.00 | 0.00 | 83 | 998.9 |
| 20260510032039 | 61 | 250 | 10.0 | 23.0 | 0.00 | 0.00 | 0.00 | 83 | 998.8 |
| 20260510031550 | 61 | 309 | 11.0 | 22.0 | 0.00 | 0.00 | 0.00 | 83 | 998.8 |
| 20260510031038 | 61 | 278 | 12.0 | 25.0 | 0.00 | 0.00 | 0.00 | 84 | 998.8 |
| 20260510030538 | 61 | 251 | 9.0 | 25.0 | 0.00 | 0.00 | 0.00 | 84 | 998.8 |
| 20260510030100 | 61 | 271 | 10.0 | 18.0 | 0.00 | 0.00 | 0.00 | 83 | 998.7 |
| 20260510025539 | 61 | 252 | 10.0 | 18.0 | 0.00 | 0.00 | 0.00 | 83 | 998.9 |
| 20260510025039 | 61 | 265 | 9.0 | 17.0 | 0.00 | 0.00 | 0.00 | 85 | 998.9 |
| 20260510024547 | 61 | 260 | 12.0 | 17.0 | 0.00 | 0.00 | 0.00 | 83 | 998.9 |
| 20260510024039 | 61 | 269 | 9.0 | 20.0 | 0.00 | 0.00 | 0.00 | 84 | 998.7 |
| 20260510023539 | 61 | 245 | 10.0 | 23.0 | 0.00 | 0.00 | 0.00 | 84 | 998.6 |
| 20260510023047 | 61 | 228 | 12.0 | 24.0 | 0.00 | 0.00 | 0.00 | 83 | 998.5 |
| 20260510022542 | 61 | 338 | 11.0 | 25.0 | 0.00 | 0.00 | 0.00 | 83 | 998.5 |
| 20260510022039 | 62 | 299 | 14.0 | 27.0 | 0.00 | 0.00 | 0.00 | 81 | 998.5 |
| 20260510021545 | 62 | 295 | 15.0 | 27.0 | 0.00 | 0.00 | 0.00 | 82 | 998.4 |
| 20260510021039 | 62 | 305 | 10.0 | 30.0 | 0.00 | 0.00 | 0.00 | 84 | 998.3 |
| 20260510020542 | 61 | 259 | 15.0 | 30.0 | 0.00 | 0.00 | 0.00 | 83 | 998.1 |
| 20260510020051 | 61 | 311 | 12.0 | 23.0 | 0.00 | 0.00 | 0.00 | 84 | 998.1 |
| 20260510015538 | 61 | 234 | 12.0 | 23.0 | 0.00 | 0.20 | 0.00 | 83 | 998.1 |
| 20260510015039 | 61 | 242 | 13.0 | 23.0 | 0.00 | 0.20 | 0.00 | 82 | 998.1 |
| 20260510014547 | 62 | 336 | 14.0 | 25.0 | 0.00 | 0.20 | 0.00 | 82 | 998.0 |
| 20260510014039 | 62 | 252 | 13.0 | 25.0 | 0.00 | 0.20 | 0.00 | 82 | 997.9 |
| 20260510013540 | 61 | 259 | 14.0 | 25.0 | 0.00 | 0.20 | 0.00 | 80 | 997.9 |
| 20260510013046 | 62 | 241 | 11.0 | 34.0 | 0.00 | 0.20 | 0.00 | 83 | 998.3 |
| 20260510012542 | 61 | 271 | 13.0 | 34.0 | 0.00 | 0.20 | 0.00 | 82 | 998.2 |
| 20260510012039 | 62 | 327 | 11.0 | 25.0 | 0.00 | 0.20 | 0.00 | 82 | 998.2 |
| 20260510011550 | 62 | 255 | 14.0 | 25.0 | 0.00 | 0.20 | 0.00 | 82 | 998.3 |
| 20260510011039 | 62 | 249 | 16.0 | 26.0 | 0.00 | 0.20 | 0.00 | 81 | 998.2 |
| 20260510010539 | 62 | 248 | 11.0 | 26.0 | 0.00 | 0.20 | 0.00 | 81 | 998.1 |
| 20260510010044 | 62 | 280 | 14.0 | 27.0 | 0.00 | 0.20 | 0.00 | 80 | 998.1 |
| 20260510005539 | 62 | 244 | 14.0 | 27.0 | 0.00 | 0.21 | 0.00 | 80 | 998.1 |
| 20260510005039 | 62 | 255 | 12.0 | 28.0 | 0.00 | 0.21 | 0.00 | 80 | 998.2 |
| 20260510004552 | 62 | 234 | 13.0 | 29.0 | 0.00 | 0.21 | 0.00 | 82 | 998.2 |
| 20260510004039 | 62 | 294 | 13.0 | 29.0 | 0.00 | 0.21 | 0.00 | 82 | 998.1 |
| 20260510003540 | 61 | 279 | 15.0 | 25.0 | 0.00 | 0.21 | 0.00 | 82 | 998.3 |
| 20260510003047 | 61 | 287 | 12.0 | 25.0 | 0.00 | 0.21 | 0.00 | 83 | 998.3 |
| 20260510002538 | 61 | 275 | 10.0 | 25.0 | 0.00 | 0.21 | 0.00 | 84 | 998.3 |
| 20260510002039 | 61 | 254 | 14.0 | 26.0 | 0.00 | 0.21 | 0.00 | 83 | 998.3 |
| 20260510001556 | 61 | 262 | 17.0 | 26.0 | 0.00 | 0.21 | 0.00 | 82 | 998.4 |
| 20260510001039 | 61 | 288 | 11.0 | 20.0 | 0.00 | 0.21 | 0.00 | 82 | 998.6 |
| 20260510000541 | 61 | 294 | 10.0 | 26.0 | 0.00 | 0.21 | 0.00 | 82 | 998.7 |
| 20260510000048 | 61 | 285 | 15.0 | 26.0 | 0.00 | 0.21 | 0.00 | 82 | 998.7 |
| 20260509235539 | 61 | 274 | 11.0 | 22.0 | 0.00 | 0.21 | 0.00 | 82 | 998.7 |
| 20260509235039 | 61 | 221 | 14.0 | 25.0 | 0.00 | 0.21 | 0.00 | 82 | 998.7 |
| 20260509234549 | 61 | 269 | 13.0 | 25.0 | 0.00 | 0.21 | 0.00 | 83 | 998.8 |
| 20260509234043 | 62 | 254 | 10.0 | 24.0 | 0.00 | 0.21 | 0.00 | 83 | 998.6 |
| 20260509233544 | 61 | 286 | 12.0 | 28.0 | 0.00 | 0.21 | 0.00 | 83 | 998.9 |
| 20260509233049 | 61 | 290 | 13.0 | 28.0 | 0.00 | 0.21 | 0.00 | 84 | 999.1 |
| 20260509232542 | 61 | 283 | 13.0 | 27.0 | 0.00 | 0.21 | 0.00 | 84 | 999.1 |
| 20260509232039 | 61 | 261 | 14.0 | 27.0 | 0.00 | 0.21 | 0.00 | 83 | 999.2 |
| 20260509231548 | 61 | 267 | 11.0 | 25.0 | 0.00 | 0.21 | 0.00 | 82 | 999.2 |
| 20260509231038 | 61 | 290 | 8.0 | 26.0 | 0.00 | 0.21 | 0.00 | 83 | 999.1 |
| 20260509230539 | 61 | 276 | 10.0 | 26.0 | 0.00 | 0.21 | 0.00 | 83 | 999.2 |
| 20260509230055 | 61 | 259 | 13.0 | 25.0 | 0.00 | 0.21 | 0.00 | 82 | 999.2 |
| 20260509225539 | 61 | 324 | 10.0 | 20.0 | 0.00 | 0.21 | 0.00 | 84 | 999.3 |
| 20260509225040 | 61 | 244 | 10.0 | 25.0 | 0.00 | 0.21 | 0.00 | 84 | 999.3 |
| 20260509224547 | 61 | 287 | 13.0 | 30.0 | 0.00 | 0.21 | 0.00 | 84 | 999.2 |
| 20260509224041 | 61 | 286 | 15.0 | 30.0 | 0.00 | 0.21 | 0.00 | 83 | 999.2 |
| 20260509223539 | 61 | 340 | 12.0 | 30.0 | 0.00 | 0.21 | 0.00 | 84 | 999.1 |
| 20260509223045 | 61 | 229 | 13.0 | 27.0 | 0.00 | 0.21 | 0.00 | 83 | 999.1 |
| 20260509222541 | 61 | 275 | 11.0 | 27.0 | 0.00 | 0.21 | 0.00 | 84 | 999.1 |
| 20260509222039 | 61 | 296 | 14.0 | 26.0 | 0.00 | 0.21 | 0.00 | 84 | 999.1 |
| 20260509221551 | 61 | 290 | 12.0 | 26.0 | 0.00 | 0.21 | 0.00 | 84 | 999.2 |
| 20260509221047 | 60 | 292 | 12.0 | 26.0 | 0.00 | 0.21 | 0.00 | 84 | 999.1 |
| 20260509220540 | 61 | 252 | 13.0 | 23.0 | 0.00 | 0.21 | 0.00 | 84 | 999.2 |
| 20260509220048 | 60 | 259 | 11.0 | 23.0 | 0.00 | 0.21 | 0.00 | 84 | 999.2 |
| 20260509215539 | 60 | 306 | 13.0 | 23.0 | 0.00 | 0.21 | 0.00 | 85 | 999.2 |
| 20260509215039 | 60 | 247 | 12.0 | 23.0 | 0.00 | 0.21 | 0.00 | 86 | 999.1 |
| 20260509214548 | 60 | 264 | 11.0 | 24.0 | 0.00 | 0.21 | 0.00 | 85 | 999.2 |
| 20260509214038 | 60 | 252 | 13.0 | 24.0 | 0.00 | 0.21 | 0.00 | 85 | 999.2 |
| 20260509213538 | 59 | 293 | 12.0 | 21.0 | 0.00 | 0.21 | 0.00 | 85 | 999.2 |
| 20260509213106 | 59 | 261 | 8.0 | 16.0 | 0.00 | 0.21 | 0.00 | 86 | 999.2 |
| 20260509212538 | 59 | 277 | 9.0 | 20.0 | 0.00 | 0.21 | 0.00 | 86 | 999.3 |
| 20260509212039 | 59 | 143 | 8.0 | 20.0 | 0.00 | 0.21 | 0.00 | 86 | 999.2 |
| 20260509211549 | 59 | 258 | 12.0 | 18.0 | 0.00 | 0.21 | 0.00 | 87 | 999.3 |
| 20260509211042 | 59 | 286 | 10.0 | 19.0 | 0.00 | 0.21 | 0.00 | 87 | 999.3 |
| 20260509210540 | 59 | 265 | 10.0 | 19.0 | 0.00 | 0.20 | 0.00 | 88 | 999.3 |
| 20260509205539 | 58 | 285 | 7.0 | 16.0 | 0.00 | 0.20 | 0.00 | 88 | 999.2 |
| 20260509205039 | 58 | 270 | 8.0 | 15.0 | 0.00 | 0.20 | 0.00 | 88 | 999.3 |
| 20260509204553 | 58 | 262 | 8.0 | 19.0 | 0.00 | 0.20 | 0.00 | 88 | 999.3 |
| 20260509204039 | 58 | 266 | 7.0 | 19.0 | 0.00 | 0.20 | 0.00 | 88 | 999.2 |
| 20260509203539 | 58 | 300 | 7.0 | 19.0 | 0.00 | 0.20 | 0.00 | 89 | 999.2 |
| 20260509203049 | 58 | 248 | 6.0 | 19.0 | 0.00 | 0.20 | 0.00 | 89 | 999.2 |
| 20260509202539 | 58 | 298 | 13.0 | 20.0 | 0.00 | 0.20 | 0.00 | 89 | 999.1 |
| 20260509202039 | 57 | 288 | 9.0 | 20.0 | 0.00 | 0.20 | 0.00 | 90 | 999.2 |
| 20260509201550 | 58 | 290 | 11.0 | 20.0 | 0.00 | 0.20 | 0.00 | 90 | 999.1 |
| 20260509201038 | 57 | 252 | 10.0 | 19.0 | 0.00 | 0.20 | 0.00 | 90 | 998.9 |
| 20260509200540 | 57 | 267 | 8.0 | 17.0 | 0.00 | 0.20 | 0.00 | 89 | 998.9 |
| 20260509200103 | 58 | 296 | 9.0 | 17.0 | 0.00 | 0.20 | 0.00 | 87 | 998.9 |
| 20260509195539 | 58 | 285 | 8.0 | 15.0 | 0.00 | 0.20 | 0.00 | 86 | 998.8 |
| 20260509195043 | 58 | 323 | 9.0 | 18.0 | 0.00 | 0.20 | 0.00 | 87 | 998.8 |
| 20260509194549 | 58 | 313 | 9.0 | 18.0 | 0.00 | 0.20 | 0.00 | 86 | 998.7 |
| 20260509194039 | 58 | 265 | 10.0 | 18.0 | 0.00 | 0.20 | 0.00 | 86 | 998.6 |
| 20260509193543 | 58 | 283 | 9.0 | 17.0 | 0.00 | 0.20 | 0.00 | 86 | 998.7 |
| 20260509193053 | 57 | 281 | 8.0 | 16.0 | 0.00 | 0.20 | 0.00 | 86 | 998.8 |
| 20260509192542 | 57 | 293 | 7.0 | 20.0 | 0.00 | 0.20 | 0.00 | 86 | 998.7 |
| 20260509192039 | 58 | 282 | 9.0 | 21.0 | 0.00 | 0.20 | 0.00 | 86 | 998.6 |
| 20260509191549 | 58 | 304 | 12.0 | 21.0 | 0.00 | 0.20 | 0.00 | 85 | 998.3 |
| 20260509191041 | 58 | 267 | 11.0 | 21.0 | 0.00 | 0.20 | 0.00 | 86 | 998.5 |
| 20260509190539 | 58 | 234 | 8.0 | 17.0 | 0.00 | 0.20 | 0.00 | 85 | 998.3 |
| 20260509190047 | 58 | 316 | 10.0 | 20.0 | 0.00 | 0.20 | 0.00 | 84 | 998.3 |
| 20260509185539 | 58 | 277 | 11.0 | 20.0 | 0.00 | 0.20 | 0.00 | 84 | 998.3 |
| 20260509185040 | 58 | 277 | 12.0 | 25.0 | 0.00 | 0.20 | 0.00 | 83 | 998.2 |
| 20260509184554 | 58 | 273 | 12.0 | 25.0 | 0.00 | 0.20 | 0.00 | 84 | 998.3 |
| 20260509184039 | 58 | 278 | 10.0 | 19.0 | 0.00 | 0.20 | 0.00 | 84 | 998.2 |
| 20260509183539 | 58 | 282 | 11.0 | 19.0 | 0.00 | 0.20 | 0.00 | 85 | 998.2 |
| 20260509183048 | 57 | 281 | 12.0 | 19.0 | 0.00 | 0.20 | 0.00 | 86 | 998.3 |
| 20260509182537 | 57 | 300 | 11.0 | 19.0 | 0.00 | 0.20 | 0.00 | 86 | 998.3 |
| 20260509182036 | 57 | 274 | 9.0 | 15.0 | 0.00 | 0.20 | 0.00 | 86 | 998.2 |
| 20260509181557 | 56 | 314 | 8.0 | 12.0 | 0.00 | 0.20 | 0.00 | 88 | 998.3 |
| 20260509181041 | 55 | 256 | 4.0 | 10.0 | 0.00 | 0.20 | 0.00 | 91 | 998.4 |
| 20260509180540 | 55 | 277 | 1.0 | 9.0 | 0.00 | 0.20 | 0.00 | 91 | 998.4 |
| 20260509180048 | 55 | 284 | 4.0 | 9.0 | 0.00 | 0.20 | 0.00 | 91 | 998.4 |
| 20260509175539 | 55 | 257 | 1.0 | 8.0 | 0.00 | 0.21 | 0.00 | 91 | 998.4 |
| 20260509175039 | 55 | 268 | 1.0 | 8.0 | 0.00 | 0.21 | 0.00 | 91 | 998.3 |
| 20260509174547 | 55 | 265 | 5.0 | 8.0 | 0.00 | 0.21 | 0.00 | 91 | 998.4 |
| 20260509174038 | 54 | 309 | 2.0 | 8.0 | 0.00 | 0.21 | 0.00 | 91 | 998.6 |
| 20260509173538 | 54 | 255 | 1.0 | 8.0 | 0.00 | 0.21 | 0.00 | 91 | 998.6 |
| 20260509173049 | 54 | 243 | 2.0 | 11.0 | 0.00 | 0.21 | 0.00 | 91 | 998.6 |
| 20260509172539 | 54 | 253 | 2.0 | 11.0 | 0.00 | 0.21 | 0.00 | 91 | 998.7 |
| 20260509172039 | 54 | 0 | 0.0 | 6.0 | 0.00 | 0.21 | 0.00 | 91 | 998.7 |
| 20260509171549 | 54 | 277 | 2.0 | 6.0 | 0.00 | 0.21 | 0.00 | 91 | 998.6 |
| 20260509171039 | 54 | 281 | 2.0 | 7.0 | 0.00 | 0.21 | 0.00 | 90 | 998.6 |
| 20260509170540 | 54 | 274 | 1.0 | 8.0 | 0.00 | 0.21 | 0.00 | 90 | 998.5 |
| 20260509170050 | 55 | 264 | 1.0 | 8.0 | 0.00 | 0.21 | 0.00 | 90 | 998.5 |
| 20260509165541 | 55 | 273 | 1.0 | 7.0 | 0.00 | 0.21 | 0.00 | 90 | 998.4 |
| 20260509165039 | 55 | 273 | 2.0 | 7.0 | 0.00 | 0.21 | 0.00 | 91 | 998.5 |
| 20260509164545 | 55 | 275 | 0.0 | 4.0 | 0.00 | 0.21 | 0.00 | 91 | 998.4 |
| 20260509164039 | 55 | 275 | 1.0 | 4.0 | 0.00 | 0.21 | 0.00 | 91 | 998.4 |
| 20260509163539 | 54 | 271 | 1.0 | 4.0 | 0.00 | 0.21 | 0.00 | 91 | 998.5 |
| 20260509163050 | 54 | 271 | 2.0 | 4.0 | 0.00 | 0.21 | 0.00 | 91 | 998.6 |
| 20260509162540 | 54 | 271 | 1.0 | 8.0 | 0.00 | 0.21 | 0.00 | 91 | 998.6 |
| 20260509162040 | 54 | 292 | 1.0 | 8.0 | 0.00 | 0.21 | 0.00 | 91 | 998.6 |
| 20260509161547 | 54 | 264 | 2.0 | 8.0 | 0.00 | 0.21 | 0.00 | 91 | 998.7 |
| 20260509161039 | 54 | 259 | 2.0 | 7.0 | 0.00 | 0.21 | 0.00 | 91 | 998.6 |
| 20260509160539 | 54 | 284 | 2.0 | 6.0 | 0.00 | 0.21 | 0.00 | 91 | 998.7 |
| 20260509160048 | 54 | 244 | 1.0 | 5.0 | 0.00 | 0.21 | 0.00 | 91 | 998.7 |
| 20260509155539 | 54 | 263 | 1.0 | 8.0 | 0.00 | 0.21 | 0.00 | 91 | 998.8 |
| 20260509155039 | 55 | 279 | 2.0 | 8.0 | 0.00 | 0.21 | 0.00 | 91 | 998.7 |
| 20260509154549 | 54 | 266 | 2.0 | 6.0 | 0.00 | 0.21 | 0.00 | 91 | 998.9 |
| 20260509154043 | 55 | 54 | 1.0 | 9.0 | 0.00 | 0.21 | 0.00 | 91 | 998.9 |
| 20260509153539 | 55 | 277 | 3.0 | 9.0 | 0.00 | 0.21 | 0.00 | 91 | 998.9 |
| 20260509153059 | 55 | 265 | 5.0 | 9.0 | 0.00 | 0.21 | 0.00 | 91 | 999.0 |
| 20260509152539 | 55 | 263 | 2.0 | 7.0 | 0.00 | 0.21 | 0.00 | 91 | 999.0 |
| 20260509152039 | 54 | 251 | 1.0 | 7.0 | 0.00 | 0.21 | 0.00 | 91 | 999.0 |
| 20260509151554 | 54 | 310 | 1.0 | 8.0 | 0.00 | 0.21 | 0.00 | 91 | 999.0 |
| 20260509151039 | 54 | 284 | 3.0 | 9.0 | 0.00 | 0.21 | 0.00 | 91 | 999.0 |
| 20260509150539 | 54 | 288 | 2.0 | 9.0 | 0.00 | 0.21 | 0.00 | 91 | 999.2 |
| 20260509150049 | 54 | 227 | 2.0 | 9.0 | 0.00 | 0.21 | 0.00 | 91 | 999.2 |
| 20260509145540 | 54 | 264 | 0.0 | 6.0 | 0.00 | 0.21 | 0.00 | 90 | 999.2 |
| 20260509145040 | 54 | 263 | 0.0 | 6.0 | 0.00 | 0.21 | 0.00 | 90 | 999.3 |
| 20260509144552 | 54 | 263 | 3.0 | 6.0 | 0.00 | 0.21 | 0.00 | 90 | 999.3 |
| 20260509144039 | 54 | 263 | 1.0 | 4.0 | 0.00 | 0.21 | 0.00 | 90 | 999.4 |
| 20260509143545 | 54 | 263 | 1.0 | 4.0 | 0.00 | 0.21 | 0.00 | 90 | 999.3 |
| 20260509143049 | 54 | 263 | 1.0 | 4.0 | 0.00 | 0.21 | 0.00 | 89 | 999.3 |
| 20260509142539 | 54 | 263 | 2.0 | 4.0 | 0.00 | 0.21 | 0.00 | 89 | 999.4 |
| 20260509142039 | 55 | 263 | 1.0 | 4.0 | 0.00 | 0.21 | 0.00 | 87 | 999.4 |
| 20260509141546 | 55 | 263 | 1.0 | 4.0 | 0.00 | 0.21 | 0.00 | 86 | 999.4 |
| 20260509141040 | 56 | 263 | 1.0 | 14.0 | 0.00 | 0.21 | 0.00 | 85 | 999.4 |
| 20260509140539 | 56 | 0 | 5.0 | 14.0 | 0.00 | 0.21 | 0.00 | 85 | 999.4 |
| 20260509140051 | 56 | 279 | 8.0 | 17.0 | 0.00 | 0.21 | 0.00 | 85 | 999.4 |
| 20260509135539 | 56 | 278 | 9.0 | 17.0 | 0.00 | 0.21 | 0.00 | 85 | 999.4 |
| 20260509135036 | 56 | 307 | 8.0 | 17.0 | 0.00 | 0.21 | 0.00 | 85 | 999.3 |
| 20260509134542 | 56 | 260 | 9.0 | 17.0 | 0.00 | 0.21 | 0.00 | 85 | 999.3 |
| 20260509134034 | 56 | 272 | 8.0 | 16.0 | 0.00 | 0.21 | 0.00 | 86 | 999.3 |
| 20260509133538 | 56 | 304 | 6.0 | 13.0 | 0.00 | 0.21 | 0.00 | 86 | 999.5 |
| 20260509133048 | 56 | 298 | 5.0 | 13.0 | 0.00 | 0.21 | 0.00 | 85 | 999.4 |
| 20260509132539 | 56 | 290 | 6.0 | 13.0 | 0.00 | 0.21 | 0.00 | 85 | 999.2 |
| 20260509132035 | 57 | 256 | 7.0 | 18.0 | 0.00 | 0.21 | 0.00 | 84 | 999.1 |
| 20260509131549 | 57 | 256 | 7.0 | 18.0 | 0.00 | 0.21 | 0.00 | 83 | 999.3 |
| 20260509131035 | 57 | 269 | 9.0 | 19.0 | 0.00 | 0.21 | 0.00 | 83 | 999.3 |
| 20260509130535 | 57 | 288 | 11.0 | 20.0 | 0.00 | 0.21 | 0.00 | 83 | 999.3 |
| 20260509130047 | 57 | 277 | 13.0 | 21.0 | 0.00 | 0.21 | 0.00 | 82 | 999.2 |
| 20260509125542 | 57 | 259 | 13.0 | 21.0 | 0.00 | 0.25 | 0.00 | 82 | 999.3 |
| 20260509125038 | 57 | 245 | 8.0 | 18.0 | 0.00 | 0.25 | 0.00 | 84 | 999.4 |
| 20260509124545 | 57 | 314 | 6.0 | 16.0 | 0.00 | 0.25 | 0.00 | 83 | 999.3 |
| 20260509124038 | 57 | 256 | 7.0 | 17.0 | 0.00 | 0.25 | 0.00 | 83 | 999.4 |
| 20260509123535 | 57 | 277 | 9.0 | 18.0 | 0.00 | 0.25 | 0.00 | 83 | 999.4 |
| 20260509123050 | 57 | 266 | 9.0 | 18.0 | 0.00 | 0.25 | 0.00 | 82 | 999.3 |
| 20260509122536 | 57 | 331 | 8.0 | 16.0 | 0.00 | 0.25 | 0.00 | 82 | 999.3 |
| 20260509122036 | 57 | 254 | 9.0 | 14.0 | 0.00 | 0.25 | 0.00 | 82 | 999.2 |
| 20260509121547 | 57 | 281 | 8.0 | 14.0 | 0.00 | 0.25 | 0.00 | 82 | 999.2 |
| 20260509121036 | 57 | 272 | 7.0 | 14.0 | 0.00 | 0.25 | 0.00 | 82 | 999.2 |
| 20260509120536 | 57 | 246 | 6.0 | 14.0 | 0.00 | 0.25 | 0.00 | 82 | 999.4 |
| 20260509120058 | 57 | 283 | 6.0 | 17.0 | 0.00 | 0.25 | 0.00 | 81 | 999.5 |
| 20260509115535 | 57 | 253 | 8.0 | 17.0 | 0.00 | 0.39 | 0.25 | 81 | 999.4 |
| 20260509115035 | 57 | 265 | 7.0 | 17.0 | 0.00 | 0.39 | 0.25 | 81 | 999.5 |
| 20260509114543 | 57 | 250 | 8.0 | 16.0 | 0.00 | 0.39 | 0.25 | 81 | 999.6 |
| 20260509114037 | 57 | 281 | 5.0 | 18.0 | 0.00 | 0.39 | 0.25 | 81 | 999.6 |
| 20260509113534 | 57 | 300 | 8.0 | 18.0 | 0.00 | 0.39 | 0.25 | 81 | 999.5 |
| 20260509113053 | 57 | 281 | 7.0 | 18.0 | 0.00 | 0.39 | 0.25 | 81 | 999.6 |
| 20260509112538 | 57 | 294 | 7.0 | 14.0 | 0.00 | 0.39 | 0.25 | 81 | 999.6 |
| 20260509112036 | 57 | 339 | 8.0 | 13.0 | 0.00 | 0.39 | 0.25 | 80 | 999.6 |
| 20260509111542 | 57 | 293 | 7.0 | 13.0 | 0.00 | 0.39 | 0.25 | 80 | 999.6 |
| 20260509111036 | 57 | 242 | 8.0 | 13.0 | 0.00 | 0.39 | 0.25 | 81 | 999.6 |
| 20260509110538 | 57 | 259 | 6.0 | 13.0 | 0.00 | 0.39 | 0.25 | 81 | 999.6 |
| 20260509110053 | 57 | 252 | 6.0 | 14.0 | 0.00 | 0.39 | 0.25 | 81 | 999.7 |